Location: Ore Lake
(42.4733°N, 83.8017°W)
Time: 16:40:45
(UTC-04:00)

Daily predictions for brighter satellites

Satellite Brightness Start Highest point End
(mag) Time Altitude Azimuth Time Altitude Azimuth Time Altitude Azimuth
BREEZE-M DEB (TANK) 4.2 21:18:12 10° WNW 21:22:01 72° SSW 21:34:55 10° ESE
Cosmos 2315 Rocket 4.1 21:20:52 10° S 21:27:08 84° E 21:33:30 10° N
Cosmos 2074 Rocket 4.5 21:26:08 10° N 21:32:05 44° ENE 21:38:02 10° SSE
Cosmos 1536 Rocket 3.7 21:28:41 10° S 21:32:53 53° E 21:37:07 10° NNE
Cosmos 1437 3.0 21:31:54 10° S 21:34:59 47° E 21:38:06 10° NNE
CZ-4B DEB 2.7 21:32:49 10° SSE 21:35:44 57° ENE 21:38:42 10° N
Helios 1A 3.0 21:31:40 10° SSE 21:35:53 85° ENE 21:40:08 10° NNW
Lacrosse 5 rocket 4.4 21:32:53 10° WNW 21:35:59 18° NNW 21:39:10 10° NNE
Meteor 1-29 3.0 21:36:41 10° NNE 21:40:01 56° E 21:43:20 10° S
SJ-11-01 4.3 21:38:22 10° SSE 21:43:03 83° ENE 21:47:46 10° NNW
Cosmos 1656 Rocket 3.7 21:38:46 10° NNW 21:44:12 66° ENE 21:49:39 10° SSE
Cosmos 2369 Rocket 4.0 21:40:10 10° NW 21:44:59 29° WSW 21:49:49 10° SSW
YAOGAN 6 2.8 21:42:29 10° SSE 21:45:52 49° ENE 21:49:17 10° N
SAR-Lupe-4 3.6 21:42:31 10° SSE 21:46:05 87° WSW 21:49:42 10° NNW
ERS-1 Rocket 3.4 21:41:56 10° SE 21:46:43 46° ENE 21:51:30 10° N
Cosmos 1544 Rocket 4.2 21:45:12 10° NNW 21:49:26 57° W 21:53:40 10° S
Cosmos 1818 3.6 21:44:58 10° SSW 21:50:25 89° ESE 21:55:54 10° NNE
RESURS DK-1 3.7 21:48:00 10° SW 21:51:57 44° WNW 21:55:57 10° NNE
Cosmos 405 Rocket 2.8 21:48:21 10° S 21:52:00 55° E 21:55:45 10° NNE
Okean 1 4.4 21:50:47 10° SSW 21:54:36 46° WNW 21:58:27 10° N
Resurs 01 Rocket 3.8 21:51:23 10° SSW 21:55:01 24° W 21:58:39 10° NW
NOSS 2-2 (D) 3.4 21:51:35 10° SSW 21:55:32 71° ESE 22:00:05 10° NE
H-2A R/B 3.5 21:52:53 10° ESE 21:56:29 21° ENE 22:00:08 10° NNE
Cosmos 1975 3.8 21:53:28 10° NNW 21:57:23 48° W 22:01:19 10° SSW
Cosmos 2112 Rocket 4.3 21:55:11 10° S 22:00:09 46° ESE 22:05:07 10° NNE
Cosmos 1943 Rocket 3.3 21:54:57 10° NW 22:00:11 41° WSW 22:05:20 10° S
Cosmos 773 Rocket 4.3 21:55:48 10° SSW 22:00:55 70° WNW 22:06:04 10° NNE
CENTAUR R/B 3.2 21:53:30 10° NW 22:01:27 89° SW 22:09:18 13° SSE
Cosmos 1025 Rocket 3.9 21:58:33 12° SSE 22:01:56 30° E 22:05:41 10° NNE
SAR-Lupe-1 4.5 21:59:21 10° S 22:02:53 62° WSW 22:06:28 10° NNW
USA 81 4.3 21:58:37 10° S 22:03:53 76° W 22:09:12 10° N
Cosmos 1441 Rocket 3.6 22:01:18 10° SSE 22:04:46 39° E 22:08:17 10° NNE
Meteor 1-13 Rocket 4.3 22:00:42 10° S 22:06:40 86° E 22:12:36 10° N
Nadezhda 1 Rocket 4.1 22:01:49 10° S 22:08:00 59° E 22:14:18 10° NNE
PSLV R/B 3.0 22:05:11 10° W 22:08:17 68° S 22:10:40 16° E
Helios 1B rocket 3.5 22:06:25 10° N 22:10:24 49° WNW 22:14:23 10° SSW
NOAA 11 4.3 22:07:47 13° SSE 22:12:39 64° ENE 22:18:02 10° N
Cosmos 1939 Rocket 3.9 22:09:22 10° S 22:13:03 42° W 22:16:45 10° NNW
NOSS 2-2 (C) 3.7 22:10:19 10° SW 22:14:20 75° NW 22:18:58 10° NNE
Cosmos 2154 Rocket 4.4 22:09:21 10° N 22:15:32 50° ENE 22:20:26 16° SSE
COSMOS 2455 3.9 22:10:34 10° NW 22:16:07 40° WSW 22:21:39 10° S
COSMOS 2406 3.2 22:10:47 10° SSW 22:16:31 84° ESE 22:22:15 10° NNE
SL-08 RB Rocket 4.4 22:14:43 18° SE 22:17:35 37° ENE 22:21:43 10° N
Cosmos 374 Rocket 4.4 22:13:57 10° NW 22:17:43 68° SW 22:20:27 19° SSE
ARGOS 3.5 22:13:33 16° SE 22:17:44 52° ENE 22:22:59 10° N
SL-27 R/B 2.6 22:14:49 10° S 22:18:22 53° ESE 22:21:57 10° NNE
Cosmos 1680 Rocket 3.5 22:18:27 10° SSW 22:23:41 89° ESE 22:28:56 10° NNE
SPOT 5 2.8 22:23:04 20° SE 22:25:51 54° ENE 22:30:06 10° N
Cosmos 2056 Rocket 4.2 22:21:16 10° N 22:26:07 38° ENE 22:29:10 20° ESE
Cosmos 1346 3.8 22:24:07 10° SSW 22:26:47 47° WNW 22:29:30 10° N
H-2A R/B 3.9 22:24:49 14° E 22:27:00 19° ENE 22:30:10 10° NNE
Cosmos 1743 3.9 22:24:55 10° NNW 22:28:35 41° W 22:32:15 10° SSW
Cosmos 2082 Rocket 3.7 22:28:03 16° ESE 22:28:49 16° E 22:32:12 10° ENE
Cosmos 405 2.9 22:29:26 10° N 22:33:02 81° E 22:34:57 26° SSE
Terra 3.1 22:37:12 19° ESE 22:39:21 26° ENE 22:43:17 10° N
ASTEX 1 3.9 22:36:32 10° S 22:41:22 58° W 22:46:13 10° NNW
Cosmos 2341 Rocket 4.2 22:37:23 10° N 22:43:40 60° E 22:47:39 23° SSE
MetOp-B 4.3 22:40:01 17° S 22:44:09 75° WSW 22:49:32 10° NNW
Tiangong 2 1.3 22:42:23 10° SW 22:45:26 46° SSE 22:45:36 45° SSE
COSMOS 2487 4.2 22:47:21 19° E 22:47:21 19° E 22:49:19 10° NE
SPOT 1/Viking Rocket 3.6 22:44:16 25° SSE 22:47:17 67° ENE 22:52:25 10° N
Cosmos 1437 Rocket 2.7 22:44:05 10° N 22:47:54 70° E 22:49:25 35° SSE
Okean 1-7 Rocket 3.9 22:46:16 11° SSW 22:50:33 67° W 22:55:03 10° N
Okean 2 3.3 22:50:04 22° S 22:52:36 88° E 22:56:43 10° N
Cosmos 1697 Rocket 4.2 22:48:44 10° N 22:53:20 25° NE 22:56:25 16° E
Cosmos 1238 Rocket 4.4 22:47:49 10° SSW 22:54:30 69° W 23:01:04 10° N
Aureole 1 Rocket 3.8 22:53:11 10° SW 22:56:19 36° WNW 22:59:09 10° N
IGS 5A 4.5 22:56:43 28° ESE 22:57:52 32° ENE 23:01:35 10° N
ISS -4.0 22:54:37 10° SW 22:57:54 78° SE 23:01:11 10° ENE
DNEPR-1 R/B 4.5 22:58:36 10° NW 23:02:35 39° WSW 23:04:38 25° S
Cosmos 1892 Rocket 3.5 23:01:37 33° S 23:03:34 72° E 23:08:00 10° NNE
Cosmos 1371 Rocket 4.1 23:00:08 10° NNW 23:05:28 74° WSW 23:08:06 30° S
Cosmos 2228 3.3 23:01:34 10° N 23:05:48 51° E 23:06:54 40° SE
OAO 2 Rocket 3.9 23:05:09 10° WSW 23:09:40 35° S 23:10:01 35° S
deb Chang Zheng 4 4.1 23:07:08 10° NNE 23:11:09 37° E 23:11:27 36° ESE
Cosmos 921 Rocket 3.1 23:07:07 10° NNW 23:11:36 68° ENE 23:12:53 44° SE
Cosmos 1833 Rocket 3.3 23:11:23 33° SE 23:12:21 35° ESE 23:17:24 10° NE
Cosmos 1656 4.2 23:08:52 10° NNW 23:14:08 46° ENE 23:16:17 31° ESE
USA 245 4.0 23:16:10 25° WSW 23:16:24 26° W 23:18:35 10° NW
Cosmos 1066 Rocket 4.4 23:15:05 36° SSE 23:16:58 53° E 23:22:24 10° NNE
Cosmos 1606 Rocket 3.9 23:12:49 10° NNW 23:17:04 58° W 23:18:50 32° SSW
Cosmos 2181 Rocket 4.0 23:13:08 23° S 23:17:22 87° E 23:23:43 10° N
SL-19 R/B 4.3 23:16:03 10° NNE 23:21:20 53° E 23:22:49 40° SSE
CZ-4 R/B 4.3 23:20:53 10° NNE 23:25:43 45° E 23:26:30 42° SE
OE (NEXTSAT) 4.3 23:22:24 10° WNW 23:25:58 82° NNE 23:26:10 77° ENE
Cosmos 1726 Rocket 4.1 23:23:47 10° NNW 23:28:00 53° W 23:29:29 35° SSW
Cosmos 1515 4.4 23:28:01 33° SW 23:29:23 50° W 23:33:06 10° N
Meteor 1-4 Rocket 2.9 23:26:56 10° N 23:30:20 51° ENE 23:30:20 51° ENE
Cosmos 1809 Rocket 4.5 23:24:40 10° N 23:30:44 66° E 23:32:55 40° SSE
USA 267 3.5 23:26:10 10° ENE 23:32:19 42° SE 23:34:02 36° SSE
Cosmos 2058 Rocket 3.3 23:30:18 10° NNW 23:34:40 63° W 23:35:51 44° SSW
PSLV R/B 4.3 23:35:54 35° NNE 23:35:54 35° NNE 23:37:45 10° N
H-2A R/B 2.6 23:33:29 31° SSW 23:35:31 49° W 23:40:23 10° NNW
CARTOSAT-1 3.5 23:36:38 59° S 23:37:26 84° WSW 23:41:47 10° NNW
Cosmos 1980 Rocket 3.3 23:35:13 10° N 23:40:22 34° NE 23:42:26 26° E
DMSP B5D2-2 4.3 23:39:40 10° N 23:44:56 68° WNW 23:47:34 30° SSW
Cosmos 2322 Rocket 4.3 23:44:41 10° N 23:48:20 17° NE 23:51:42 11° E
SeaSat 1 4.0 23:46:39 20° E 23:48:33 26° NE 23:52:36 10° N
Cosmos 864 Rocket 4.4 23:43:07 10° N 23:49:27 84° E 23:51:33 45° SSE
